EW3708 Weather Reports


Display with metric or nautical units.
time (UTC)temp
F
wind
direction
speed
MPH
gust
MPH
rain 1hr
in
rain 24hr
in
rain mn
in
humidity
%
barometer
mb
20260503191521 54 348 2.0 8.0 0.00 0.00 0.00 32 1011.2
20260503190017 53 293 2.0 9.0 0.00 0.00 0.00 34 1011.4
20260503184516 54 296 4.0 15.0 0.00 0.00 0.00 33 1011.7
20260503183017 53 152 4.0 10.0 0.00 0.00 0.00 33 1011.7
20260503181512 51 313 4.0 12.0 0.00 0.00 0.00 34 1011.9
20260503180017 52 329 4.0 10.0 0.00 0.00 0.00 35 1011.8
20260503174512 51 305 4.0 8.0 0.00 0.00 0.00 34 1012.0
20260503173011 52 318 4.0 9.0 0.00 0.00 0.00 34 1012.3
20260503171510 51 312 3.0 9.0 0.00 0.00 0.00 36 1012.1
20260503081510 37 32 1.0 4.0 0.00 0.01 0.00 71 1011.0
20260503071600 38 325 1.0 6.0 0.00 0.02 0.00 68 1011.0
20260503070106 39 282 2.0 4.0 0.00 0.02 0.00 67 1010.9
20260503054554 40 306 0.0 4.0 0.00 0.13 0.00 63 1011.2
20260503053048 40 290 1.0 5.0 0.00 0.13 0.00 62 1011.3
20260503051546 41 240 1.0 5.0 0.00 0.13 0.00 61 1011.5
20260503050044 41 286 1.0 3.0 0.00 0.13 0.00 61 1011.7
20260503044546 41 321 1.0 3.0 0.00 0.23 0.00 61 1011.8
20260503043042 41 303 2.0 4.0 0.00 0.23 0.00 62 1011.9
20260503041545 41 296 2.0 4.0 0.00 0.23 0.00 61 1012.0
20260503040041 42 284 1.0 3.0 0.00 0.23 0.00 63 1012.1
20260503034540 42 298 1.0 3.0 0.00 0.24 0.23 64 1012.1
20260503033035 42 302 1.0 4.0 0.00 0.24 0.23 62 1012.1
20260503031537 42 284 1.0 3.0 0.00 0.24 0.23 61 1012.1
20260503030132 43 290 1.0 5.0 0.00 0.24 0.23 61 1012.2
20260503024532 43 301 0.0 2.0 0.00 0.25 0.23 61 1012.2
20260503023030 43 301 1.0 3.0 0.00 0.25 0.23 58 1012.3
20260503021530 43 302 1.0 3.0 0.00 0.25 0.23 57 1012.3
20260503020030 44 300 1.0 3.0 0.00 0.25 0.23 56 1012.3
20260503014539 44 302 1.0 3.0 0.00 0.26 0.23 55 1012.3
20260503013029 44 288 0.0 3.0 0.00 0.26 0.23 55 1012.2
20260503011529 44 281 1.0 3.0 0.00 0.26 0.23 54 1012.1
20260503010028 45 281 0.0 1.0 0.00 0.26 0.23 55 1012.1
20260503004528 45 281 0.0 2.0 0.00 0.28 0.23 52 1011.7
20260503003026 46 281 1.0 3.0 0.00 0.28 0.23 52 1011.7
20260503001526 46 281 0.0 3.0 0.00 0.28 0.23 51 1011.5
20260503000026 46 281 0.0 3.0 0.00 0.28 0.23 50 1011.4
20260502234525 47 281 0.0 2.0 0.00 0.28 0.23 50 1011.2
20260502233024 47 281 0.0 2.0 0.00 0.28 0.23 48 1011.3
20260502231527 47 281 0.0 2.0 0.00 0.28 0.23 46 1011.3
20260502230024 48 281 1.0 4.0 0.00 0.28 0.23 46 1011.4
20260502224523 48 292 1.0 3.0 0.00 0.28 0.23 44 1011.2
20260502223022 48 302 1.0 3.0 0.00 0.28 0.23 43 1011.2
20260502221522 48 315 1.0 4.0 0.00 0.28 0.23 44 1011.0
20260502220031 49 275 1.0 3.0 0.00 0.28 0.23 42 1011.0
20260502214521 49 202 1.0 5.0 0.00 0.28 0.23 43 1010.9
20260502213020 50 279 2.0 6.0 0.00 0.28 0.23 41 1010.7
20260502211532 51 262 3.0 5.0 0.00 0.28 0.23 41 1010.6
20260502210019 51 313 2.0 5.0 0.00 0.28 0.23 43 1010.5
20260502204519 51 236 3.0 6.0 0.00 0.28 0.23 39 1010.6
20260502203018 52 285 3.0 6.0 0.00 0.28 0.23 39 1010.7
20260502201517 51 206 3.0 6.0 0.00 0.28 0.23 43 1010.7
20260502200018 52 292 2.0 5.0 0.00 0.28 0.23 41 1010.8
20260502194517 52 261 1.0 5.0 0.00 0.28 0.23 38 1010.9
20260502193016 52 227 2.0 9.0 0.00 0.28 0.23 38 1011.1